DW6352 Weather Reports


time (UTC)temp
C
wind
direction
speed
KPH
gust
KPH
rain 1hr
cm
rain 24hr
cm
rain mn
cm
humidity
%
barometer
mb
20260901131636 17 271 1.6 8.0 0.00 0.00 0.00 92 1012.6
20260901130014 16 301 3.2 6.4 0.00 0.00 0.00 94 1012.5
20260901124509 16 302 1.6 3.2 0.00 0.00 0.00 94 1012.4
20260901123009 15 302 0.0 3.2 0.00 0.00 0.00 94 1012.2
20260901121514 13 302 0.0 0.0 0.00 0.00 0.00 94 1012.1
20260901120129 13 302 0.0 0.0 0.00 0.00 0.00 94 1011.9
20260901114633 13 302 0.0 1.6 0.00 0.00 0.00 94 1011.8
20260901113011 13 302 0.0 0.0 0.00 0.00 0.00 94 1011.7
20260901111513 13 302 0.0 1.6 0.00 0.00 0.00 94 1011.6
20260901110005 13 302 0.0 3.2 0.00 0.00 0.00 94 1011.5
20260901104517 13 302 1.6 4.8 0.00 0.00 0.00 94 1011.4
20260901103129 13 302 1.6 4.8 0.00 0.00 0.00 94 1011.5
20260901101506 14 302 0.0 3.2 0.00 0.00 0.00 93 1011.3
20260901100013 14 302 3.2 4.8 0.00 0.00 0.00 93 1011.2
20260901094505 14 302 0.0 3.2 0.00 0.00 0.00 93 1011.0
20260901093004 15 302 0.0 3.2 0.00 0.00 0.00 93 1011.0
20260901091513 15 302 0.0 3.2 0.00 0.00 0.00 94 1011.0
20260901090126 14 302 0.0 3.2 0.00 0.00 0.00 94 1010.8
20260901084517 14 302 0.0 1.6 0.00 0.00 0.00 93 1010.8
20260901083126 14 302 1.6 3.2 0.00 0.00 0.00 93 1010.6
20260901081504 15 302 0.0 1.6 0.00 0.00 0.00 93 1010.7
20260901080003 14 302 0.0 1.6 0.00 0.00 0.00 93 1010.8
20260901074627 15 302 0.0 0.0 0.00 0.00 0.00 93 1010.7
20260901073026 15 302 1.6 3.2 0.00 0.00 0.00 93 1011.0
20260901071515 15 302 1.6 3.2 0.00 0.00 0.00 93 1011.0
20260901070021 15 302 1.6 3.2 0.00 0.00 0.00 93 1011.2
20260901064503 15 302 0.0 3.2 0.00 0.00 0.00 93 1011.3
20260901063012 15 302 0.0 0.0 0.00 0.00 0.00 93 1011.5
20260901061506 16 302 0.0 3.2 0.00 0.00 0.00 93 1011.4
20260901060011 16 302 0.0 0.0 0.00 0.00 0.00 93 1011.3
20260901054503 16 302 0.0 0.0 0.00 0.00 0.00 92 1011.3
20260901053009 16 302 0.0 3.2 0.00 0.00 0.00 92 1011.2
20260901051630 16 302 0.0 1.6 0.00 0.00 0.00 92 1011.1
20260901050127 16 302 0.0 0.0 0.00 0.00 0.00 92 1011.0
20260901044507 16 302 0.0 0.0 0.00 0.00 0.00 92 1011.0
20260901043006 16 302 0.0 3.2 0.00 0.00 0.00 92 1010.9
20260901041505 17 302 0.0 1.6 0.00 0.00 0.00 91 1010.7
20260901040007 17 302 0.0 1.6 0.00 0.00 0.00 91 1010.6
20260901034522 17 302 0.0 3.2 0.00 0.00 0.00 90 1010.7
20260901033011 17 302 0.0 1.6 0.00 0.00 0.00 89 1010.6
20260901031627 18 302 0.0 0.0 0.00 0.00 0.00 89 1010.4
20260901030018 18 302 0.0 1.6 0.00 0.00 0.00 88 1010.4
20260901024514 18 302 0.0 1.6 0.00 0.00 0.00 88 1010.1
20260901023127 18 302 0.0 3.2 0.00 0.00 0.00 87 1010.2
20260901021515 19 302 0.0 0.0 0.00 0.00 0.00 86 1010.1
20260901020011 20 302 0.0 0.0 0.00 0.00 0.00 85 1010.1
20260901014507 20 302 0.0 3.2 0.00 0.00 0.00 83 1010.0
20260901013133 20 302 0.0 0.0 0.00 0.00 0.00 80 1009.8
20260901011509 21 302 0.0 0.0 0.00 0.00 0.00 77 1009.6
20260901010003 22 302 0.0 0.0 0.00 0.00 0.00 74 1009.7
20260901004515 23 302 0.0 1.6 0.00 0.00 0.00 68 1009.6
20260901003007 26 302 3.2 4.8 0.00 0.00 0.00 55 1009.6
20260901001626 27 302 1.6 4.8 0.00 0.00 0.00 52 1009.6
20260901000015 27 302 3.2 8.0 0.00 0.00 0.00 48 1009.4
20260831234503 28 303 3.2 8.0 0.00 0.00 0.00 47 1009.3
20260831233014 28 283 4.8 9.7 0.00 0.00 0.00 45 1009.3
20260831231502 28 301 4.8 8.0 0.00 0.00 0.00 44 1009.4
20260831230013 28 217 6.4 14.5 0.00 0.00 0.00 46 1009.3
20260831224512 28 250 8.0 14.5 0.00 0.00 0.00 47 1009.2
20260831223012 29 311 4.8 12.9 0.00 0.00 0.00 50 1009.3
20260831221529 30 270 3.2 12.9 0.00 0.00 0.00 50 1009.0
20260831220128 29 309 4.8 12.9 0.00 0.00 0.00 48 1009.0
20260831214624 30 332 3.2 16.1 0.00 0.00 0.00 48 1008.8
20260831213013 29 265 4.8 12.9 0.00 0.00 0.00 48 1008.9
20260831211516 30 340 4.8 16.1 0.00 0.00 0.00 48 1009.0
20260831210010 29 311 9.7 17.7 0.00 0.00 0.00 47 1008.9
20260831204515 29 254 9.7 17.7 0.00 0.00 0.00 50 1009.0
20260831203010 29 281 8.0 14.5 0.00 0.00 0.00 50 1009.0
20260831201512 29 311 8.0 16.1 0.00 0.00 0.00 50 1008.9
20260831200005 28 41 6.4 11.3 0.00 0.00 0.00 54 1008.7
20260831194521 28 304 6.4 12.9 0.00 0.00 0.00 54 1008.8
20260831193126 28 286 11.3 17.7 0.00 0.00 0.00 51 1008.8
20260831191506 28 307 4.8 20.9 0.00 0.00 0.00 51 1008.8
20260831190010 28 347 6.4 19.3 0.00 0.00 0.00 57 1008.7
20260831184508 28 292 12.9 17.7 0.00 0.00 0.00 56 1008.8
20260831183130 27 17 6.4 19.3 0.00 0.00 0.00 60 1008.6
20260831181628 27 328 8.0 19.3 0.00 0.00 0.00 65 1008.6
20260831180010 27 246 6.4 16.1 0.00 0.00 0.00 68 1008.7
20260831174508 27 304 6.4 14.5 0.00 0.00 0.00 68 1008.8
20260831173006 26 261 3.2 12.9 0.00 0.00 0.00 73 1008.9
20260831171515 26 307 6.4 16.1 0.00 0.00 0.00 73 1009.0
20260831170013 26 49 4.8 16.1 0.00 0.00 0.00 76 1009.1
20260831164510 26 319 4.8 9.7 0.00 0.00 0.00 78 1009.0
20260831163004 25 250 8.0 17.7 0.00 0.00 0.00 79 1008.8
20260831161627 25 304 6.4 12.9 0.00 0.00 0.00 81 1008.7
20260831160023 24 309 8.0 17.7 0.00 0.00 0.00 84 1008.7
20260831154508 23 301 4.8 17.7 0.00 0.00 0.00 86 1008.7
20260831153014 23 337 3.2 11.3 0.00 0.00 0.00 89 1008.6
20260831151626 23 290 3.2 12.9 0.00 0.00 0.00 91 1008.3
20260831150004 22 313 9.7 19.3 0.00 0.00 0.00 92 1008.0
20260831144521 22 306 9.7 17.7 0.00 0.00 0.00 93 1007.7
20260831143016 21 291 8.0 16.1 0.00 0.00 0.00 94 1007.7
20260831141507 21 321 3.2 6.4 0.00 0.00 0.00 94 1007.5
20260831140125 21 244 1.6 8.0 0.00 0.00 0.00 94 1007.5
20260831134516 21 298 3.2 6.4 0.00 0.00 0.00 94 1007.0
20260831133012 21 201 0.0 1.6 0.00 0.00 0.00 94 1006.9